Voltar ao catálogo

STARLINK-3140

AtivoComunicaçõesVLEO
NORAD 49460·PAYLOAD·🇺🇸 United States

Lançado Nov 13, 2021 de Cape Canaveral Space Force Station

Loading…

Próximas Passagens (próximas 24 horas)

TLE

AtualizadoSource: CelesTrak SupGP

Época: Sep 14, 2026, 21:13 UTC

1 49460C 21104BE  26257.88451389  .00028464  00000+0  84131-3 0  2579
2 49460  53.1587  77.6260 0001398  87.0759   1.2785 15.34363561    10

Acompanhe STARLINK-3140 em tempo real com AllMySat

Download on the App Store